GW1125 Weather Reports


Display with metric or nautical units.
time (UTC)temp
F
wind
direction
speed
MPH
gust
MPH
rain 1hr
in
rain 24hr
in
rain mn
in
humidity
%
barometer
mb
20260508033617 56 0.0 0.0 0.00 0.00 0.00 73 1015.5
20260508033117 57 0.0 0.0 0.00 0.00 0.00 72 1015.5
20260508032618 58 0.0 0.0 0.00 0.00 0.00 70 1015.5
20260508032117 58 0.0 0.0 0.00 0.00 0.00 70 1015.5
20260508031617 59 0.0 0.0 0.00 0.00 0.00 69 1015.5
20260508031117 59 0.0 0.0 0.00 0.00 0.00 68 1015.5
20260508030617 59 0.0 0.0 0.00 0.00 0.00 67 1015.5
20260508030117 60 0.0 0.0 0.00 0.00 0.00 66 1015.4
20260508025617 60 0.0 0.0 0.00 0.00 0.00 64 1015.4
20260508025118 60 0.0 0.0 0.00 0.00 0.00 63 1015.4
20260508024617 61 0.0 0.0 0.00 0.00 0.00 62 1015.5
20260508024118 61 0.0 0.0 0.00 0.00 0.00 62 1015.6
20260508023618 61 0.0 0.0 0.00 0.00 0.00 61 1015.5
20260508023117 61 0.0 0.0 0.00 0.00 0.00 61 1015.7
20260508022637 61 0.0 0.0 0.00 0.00 0.00 61 1015.5
20260508022137 62 0.0 0.0 0.00 0.00 0.00 61 1015.5
20260508021637 62 0.0 0.0 0.00 0.00 0.00 60 1015.6
20260508021117 62 0.0 0.0 0.00 0.00 0.00 59 1015.6
20260508020656 62 60 1.0 2.0 0.00 0.00 0.00 59 1015.5
20260508020118 62 299 1.0 3.0 0.00 0.00 0.00 59 1015.8
20260508015638 63 263 1.0 3.0 0.00 0.00 0.00 58 1015.7
20260508015118 63 0.0 0.0 0.00 0.00 0.00 57 1015.6
20260508014617 63 91 0.0 1.0 0.00 0.00 0.00 58 1015.7
20260508014137 63 105 0.0 1.0 0.00 0.00 0.00 56 1015.7
20260508013617 64 114 1.0 2.0 0.00 0.00 0.00 56 1015.7
20260508013117 64 74 0.0 2.0 0.00 0.00 0.00 56 1015.7
20260508012617 64 277 0.0 2.0 0.00 0.00 0.00 55 1015.7
20260508012117 64 87 0.0 2.0 0.00 0.00 0.00 55 1015.7
20260508011618 64 88 1.0 3.0 0.00 0.00 0.00 55 1015.8
20260508011118 65 80 1.0 2.0 0.00 0.00 0.00 54 1015.9
20260508010617 63 0.0 0.0 0.00 0.00 0.00 57 1015.9
20260508010157 64 347 2.0 3.0 0.00 0.00 0.00 56 1016.0
20260508005617 65 87 0.0 1.0 0.00 0.00 0.00 54 1016.1
20260508005117 64 89 0.0 1.0 0.00 0.00 0.00 56 1016.1
20260508004617 64 0.0 0.0 0.00 0.00 0.00 57 1016.0
20260508004117 64 92 0.0 1.0 0.00 0.00 0.00 56 1016.1
20260508003617 64 0.0 0.0 0.00 0.00 0.00 56 1016.2
20260508003117 64 84 1.0 2.0 0.00 0.00 0.00 56 1016.2
20260508002617 64 80 1.0 2.0 0.00 0.00 0.00 56 1016.4
20260508002117 64 0.0 0.0 0.00 0.00 0.00 55 1016.4
20260508001637 64 92 1.0 2.0 0.00 0.00 0.00 56 1016.4
20260508001117 64 50 2.0 4.0 0.00 0.00 0.00 55 1016.3
20260508000617 63 62 2.0 3.0 0.00 0.00 0.00 56 1016.4
20260508000117 63 73 3.0 6.0 0.00 0.00 0.00 56 1016.3
20260507235617 64 82 1.0 3.0 0.00 0.00 0.00 56 1016.4
20260507235117 64 39 2.0 4.0 0.00 0.00 0.00 55 1016.3
20260507234617 66 73 0.0 1.0 0.00 0.00 0.00 54 1016.2
20260507234117 65 93 0.0 1.0 0.00 0.00 0.00 54 1016.4
20260507233617 64 0.0 0.0 0.00 0.00 0.00 56 1016.3
20260507233137 64 330 4.0 7.0 0.00 0.00 0.00 54 1016.5
20260507232617 64 77 2.0 4.0 0.00 0.00 0.00 55 1016.4
20260507232117 65 316 1.0 3.0 0.00 0.00 0.00 54 1016.4
20260507231617 65 0.0 0.0 0.00 0.00 0.00 55 1016.5
20260507231117 66 69 1.0 2.0 0.00 0.00 0.00 53 1016.6
20260507230617 65 175 1.0 3.0 0.00 0.00 0.00 52 1016.6
20260507230116 65 112 1.0 2.0 0.00 0.00 0.00 54 1016.7
20260507225618 65 122 1.0 3.0 0.00 0.00 0.00 55 1016.7
20260507225157 63 0.0 0.0 0.00 0.00 0.00 58 1016.8
20260507224617 64 75 2.0 3.0 0.00 0.00 0.00 56 1016.8
20260507224117 64 90 1.0 2.0 0.00 0.00 0.00 54 1016.9
20260507223617 65 173 1.0 1.0 0.00 0.00 0.00 53 1017.0
20260507223137 64 89 1.0 2.0 0.00 0.00 0.00 55 1016.9
20260507222617 64 61 2.0 4.0 0.00 0.00 0.00 57 1017.0
20260507222117 63 14 1.0 3.0 0.00 0.00 0.00 58 1017.2
20260507221617 63 0.0 0.0 0.00 0.00 0.00 60 1017.2
20260507221117 63 0.0 0.0 0.00 0.00 0.00 60 1017.1
20260507220637 62 31 2.0 3.0 0.00 0.00 0.00 58 1017.2
20260507220117 62 0.0 0.0 0.00 0.00 0.00 61 1017.3
20260507215617 62 0.0 0.0 0.00 0.00 0.00 60 1017.3
20260507215117 62 73 0.0 2.0 0.00 0.00 0.00 59 1017.3
20260507214617 63 80 0.0 1.0 0.00 0.00 0.00 59 1017.4
20260507214117 64 72 2.0 4.0 0.00 0.00 0.00 56 1017.4
20260507213617 66 66 2.0 3.0 0.00 0.00 0.00 54 1017.4
20260507213117 65 0.0 0.0 0.00 0.00 0.00 55 1017.6
20260507212618 64 31 3.0 6.0 0.00 0.00 0.00 54 1017.6
20260507212117 65 48 2.0 4.0 0.00 0.00 0.00 56 1017.7
20260507211617 64 0.0 0.0 0.00 0.00 0.00 60 1017.8
20260507211117 63 135 1.0 3.0 0.00 0.00 0.00 58 1017.9
20260507210637 61 109 0.0 1.0 0.00 0.00 0.00 62 1017.9
20260507210117 60 45 3.0 6.0 0.00 0.00 0.00 63 1018.0
20260507205617 60 48 2.0 6.0 0.00 0.00 0.00 65 1018.0
20260507205117 61 0.0 0.0 0.00 0.00 0.00 63 1018.0
20260507204616 61 65 1.0 2.0 0.00 0.00 0.00 63 1018.1
20260507204117 64 0.0 0.0 0.00 0.00 0.00 61 1018.0
20260507203637 62 73 1.0 2.0 0.00 0.00 0.00 62 1018.1
20260507203137 60 81 1.0 3.0 0.00 0.00 0.00 64 1018.3
20260507202618 60 0.0 0.0 0.00 0.00 0.00 67 1018.4
20260507202117 61 0.0 0.0 0.00 0.00 0.00 65 1018.5
20260507201617 60 102 0.0 1.0 0.00 0.00 0.00 66 1018.5
20260507201117 61 121 1.0 2.0 0.00 0.00 0.00 64 1018.4
20260507200617 61 123 1.0 2.0 0.00 0.00 0.00 62 1018.6
20260507200137 60 75 1.0 2.0 0.00 0.00 0.00 65 1018.6
20260507195638 60 0.0 0.0 0.00 0.00 0.00 69 1018.6
20260507195117 61 59 2.0 4.0 0.00 0.00 0.00 64 1018.6
20260507194638 59 117 0.0 1.0 0.00 0.00 0.00 69 1018.7
20260507194117 59 107 1.0 1.0 0.00 0.00 0.00 68 1018.8
20260507193617 59 87 1.0 1.0 0.00 0.00 0.00 69 1018.6
20260507193117 58 103 0.0 1.0 0.00 0.00 0.00 71 1018.8
20260507192617 58 82 0.0 2.0 0.00 0.00 0.00 71 1018.9
20260507192117 57 147 1.0 3.0 0.00 0.00 0.00 71 1018.8
20260507191616 57 77 1.0 2.0 0.00 0.00 0.00 72 1018.9
20260507191117 57 114 1.0 2.0 0.00 0.00 0.00 72 1018.9
20260507190618 57 85 0.0 2.0 0.00 0.00 0.00 72 1019.1
20260507190117 56 70 1.0 2.0 0.00 0.00 0.00 74 1019.0
20260507185617 56 98 0.0 1.0 0.00 0.00 0.00 74 1019.0
20260507185117 57 152 1.0 3.0 0.00 0.00 0.00 73 1019.0
20260507184617 58 43 1.0 2.0 0.00 0.00 0.00 70 1019.1
20260507184137 57 0.0 0.0 0.00 0.00 0.00 73 1019.1
20260507183637 57 0.0 0.0 0.00 0.00 0.00 70 1019.0
20260507183137 56 105 0.0 1.0 0.00 0.00 0.00 73 1019.1
20260507182617 56 42 1.0 4.0 0.00 0.00 0.00 73 1019.4
20260507182117 56 68 2.0 2.0 0.00 0.00 0.00 73 1019.2
20260507181618 58 351 0.0 2.0 0.00 0.00 0.00 71 1019.2
20260507181117 58 112 1.0 2.0 0.00 0.00 0.00 71 1019.2
20260507180617 56 116 0.0 2.0 0.00 0.00 0.00 74 1019.2
20260507180117 56 88 0.0 1.0 0.00 0.00 0.00 77 1019.1
20260507175617 55 84 0.0 2.0 0.00 0.00 0.00 77 1019.4
20260507175117 55 54 0.0 1.0 0.00 0.00 0.00 78 1019.4
20260507174617 55 0.0 0.0 0.00 0.00 0.00 78 1019.5
20260507174118 55 56 1.0 3.0 0.00 0.00 0.00 77 1019.4
20260507173637 55 110 0.0 1.0 0.00 0.00 0.00 78 1019.5
20260507173118 54 44 1.0 4.0 0.00 0.00 0.00 79 1019.5
20260507172618 54 83 0.0 1.0 0.00 0.00 0.00 79 1019.6
20260507172117 54 77 2.0 3.0 0.00 0.00 0.00 79 1019.4
20260507171637 55 52 4.0 7.0 0.00 0.00 0.00 78 1019.4
20260507171117 54 91 0.0 1.0 0.00 0.00 0.00 79 1019.6
20260507170617 55 73 2.0 3.0 0.00 0.00 0.00 79 1019.5
20260507170157 54 0.0 0.0 0.00 0.00 0.00 79 1019.4
20260507165617 54 19 2.0 3.0 0.00 0.00 0.00 79 1019.4
20260507165117 54 116 0.0 1.0 0.00 0.00 0.00 78 1019.3
20260507164638 54 91 0.0 1.0 0.00 0.00 0.00 80 1019.5
20260507164137 54 100 0.0 1.0 0.00 0.00 0.00 79 1019.6
20260507163717 56 108 0.0 1.0 0.00 0.00 0.00 76 1019.3
20260507163117 56 95 0.0 2.0 0.00 0.00 0.00 76 1019.4
20260507162617 55 87 0.0 1.0 0.00 0.00 0.00 75 1019.5
20260507162117 55 0.0 0.0 0.00 0.00 0.00 78 1019.4
20260507161617 54 120 0.0 1.0 0.00 0.00 0.00 79 1019.5
20260507161138 53 74 2.0 3.0 0.00 0.00 0.00 78 1019.5
20260507160637 52 0.0 0.0 0.00 0.00 0.00 81 1019.5
20260507160158 52 0.0 0.0 0.00 0.00 0.00 82 1019.5
20260507155617 53 118 0.0 1.0 0.00 0.00 0.00 81 1019.6
20260507155117 53 99 0.0 1.0 0.00 0.00 0.00 82 1019.6
20260507154617 53 0.0 0.0 0.00 0.00 0.00 83 1019.7
20260507154117 52 106 0.0 1.0 0.00 0.00 0.00 82 1019.6
20260507153617 52 122 0.0 1.0 0.00 0.00 0.00 83 1019.6
20260507153117 52 0.0 0.0 0.00 0.00 0.00 86 1019.6
20260507152656 52 0.0 0.0 0.00 0.00 0.00 84 1019.7
20260507152117 52 106 0.0 1.0 0.00 0.00 0.00 84 1019.6
20260507151617 51 0.0 0.0 0.00 0.00 0.00 85 1019.8
20260507151117 51 0.0 0.0 0.00 0.00 0.00 85 1019.8
20260507150617 51 101 1.0 2.0 0.00 0.00 0.00 84 1019.8
20260507150137 51 137 0.0 2.0 0.00 0.00 0.00 84 1019.9
20260507145617 51 160 1.0 4.0 0.00 0.00 0.00 84 1019.8
20260507145137 51 139 1.0 3.0 0.00 0.00 0.00 84 1019.9
20260507144617 50 154 2.0 3.0 0.00 0.00 0.00 85 1019.9
20260507144116 50 124 1.0 2.0 0.00 0.00 0.00 85 1019.8
20260507143617 50 101 0.0 1.0 0.00 0.00 0.00 85 1019.7
20260507143117 50 138 1.0 2.0 0.00 0.00 0.00 85 1019.8
20260507142617 50 142 1.0 2.0 0.00 0.00 0.00 85 1019.7
20260507142117 50 0.0 0.0 0.00 0.00 0.00 85 1019.9
20260507141617 50 0.0 0.0 0.00 0.00 0.00 86 1019.9
20260507141117 50 0.0 0.0 0.00 0.00 0.00 86 1019.8
20260507140617 50 0.0 0.0 0.00 0.00 0.00 86 1019.8
20260507140117 50 0.0 0.0 0.00 0.00 0.00 86 1019.9
20260507135617 50 0.0 0.0 0.00 0.00 0.00 86 1019.8
20260507135118 49 0.0 0.0 0.00 0.00 0.00 86 1019.7
20260507134617 49 0.0 0.0 0.00 0.00 0.00 87 1019.6
20260507134117 49 0.0 0.0 0.00 0.00 0.00 88 1019.7
20260507133617 49 0.0 0.0 0.00 0.00 0.00 87 1019.6
20260507133137 49 0.0 0.0 0.00 0.00 0.00 87 1019.6
20260507132617 49 0.0 0.0 0.00 0.00 0.00 89 1019.7
20260507132117 49 0.0 0.0 0.00 0.00 0.00 89 1019.6
20260507131617 48 0.0 0.0 0.00 0.00 0.00 89 1019.6
20260507131117 48 0.0 0.0 0.00 0.00 0.00 89 1019.7
20260507130618 48 0.0 0.0 0.00 0.00 0.00 89 1019.6
20260507130117 48 0.0 0.0 0.00 0.00 0.00 89 1019.6
20260507125617 48 0.0 0.0 0.00 0.00 0.00 90 1019.6
20260507125117 48 0.0 0.0 0.00 0.00 0.00 90 1019.7
20260507124617 48 0.0 0.0 0.00 0.00 0.00 90 1019.7
20260507124117 48 0.0 0.0 0.00 0.00 0.00 90 1019.8
20260507123617 48 0.0 0.0 0.00 0.00 0.00 90 1019.8
20260507123137 48 0.0 0.0 0.00 0.00 0.00 89 1019.8
20260507122617 48 0.0 0.0 0.00 0.00 0.00 90 1019.7
20260507122117 49 0.0 0.0 0.00 0.00 0.00 89 1019.9
20260507121617 49 0.0 0.0 0.00 0.00 0.00 89 1019.9
20260507121117 49 0.0 0.0 0.00 0.00 0.00 88 1019.8
20260507120617 49 0.0 0.0 0.00 0.00 0.00 88 1019.9
20260507120117 49 0.0 0.0 0.00 0.00 0.00 88 1019.8
20260507115617 49 0.0 0.0 0.00 0.00 0.00 89 1020.0
20260507115117 49 0.0 0.0 0.00 0.00 0.00 89 1020.0
20260507114617 49 0.0 0.0 0.00 0.00 0.00 88 1020.3
20260507114118 49 0.0 0.0 0.00 0.00 0.00 89 1020.3
20260507113618 49 0.0 0.0 0.00 0.00 0.00 88 1020.2
20260507113118 49 0.0 0.0 0.00 0.00 0.00 89 1020.2
20260507112617 49 0.0 0.0 0.00 0.00 0.00 89 1020.2
20260507112117 49 0.0 0.0 0.00 0.00 0.00 89 1020.2
20260507111617 49 0.0 0.0 0.00 0.00 0.00 90 1020.0
20260507111117 49 0.0 0.0 0.00 0.00 0.00 90 1020.1
20260507110617 49 0.0 0.0 0.00 0.00 0.00 90 1020.2
20260507110117 49 0.0 0.0 0.00 0.00 0.00 90 1020.1
20260507105637 49 0.0 0.0 0.00 0.00 0.00 90 1020.2
20260507105117 49 0.0 0.0 0.00 0.00 0.00 91 1020.2
20260507104617 48 0.0 0.0 0.00 0.00 0.00 91 1020.3
20260507104117 48 0.0 0.0 0.00 0.00 0.00 93 1020.1
20260507103617 48 0.0 0.0 0.00 0.00 0.00 93 1020.3
20260507103117 49 0.0 0.0 0.00 0.00 0.00 93 1020.4
20260507102617 48 0.0 0.0 0.00 0.00 0.00 92 1020.3
20260507102117 48 0.0 0.0 0.00 0.00 0.00 92 1020.3
20260507101617 48 0.0 0.0 0.00 0.00 0.00 92 1020.3
20260507101118 49 0.0 0.0 0.00 0.00 0.00 92 1020.3
20260507100618 49 0.0 0.0 0.00 0.00 0.00 92 1020.4
20260507100118 49 0.0 0.0 0.00 0.00 0.00 92 1020.3
20260507095617 49 0.0 0.0 0.00 0.00 0.00 92 1020.3
20260507095117 49 0.0 0.0 0.00 0.00 0.00 92 1020.3
20260507094617 49 0.0 0.0 0.00 0.00 0.00 92 1020.2
20260507094117 49 0.0 0.0 0.00 0.00 0.00 91 1020.2
20260507093617 49 0.0 0.0 0.00 0.00 0.00 91 1020.3
20260507093117 49 0.0 0.0 0.00 0.00 0.00 91 1020.3
20260507092618 49 0.0 0.0 0.00 0.00 0.00 91 1020.3
20260507092118 49 0.0 0.0 0.00 0.00 0.00 92 1020.2
20260507091637 49 0.0 0.0 0.00 0.00 0.00 92 1020.2
20260507091117 49 0.0 0.0 0.00 0.00 0.00 92 1020.4
20260507090617 49 0.0 0.0 0.00 0.00 0.00 92 1020.1
20260507090117 50 0.0 0.0 0.00 0.00 0.00 92 1020.2
20260507085617 50 0.0 0.0 0.00 0.00 0.00 91 1020.2
20260507085117 50 0.0 0.0 0.00 0.00 0.00 91 1020.1
20260507084617 50 0.0 0.0 0.00 0.00 0.00 91 1020.2
20260507084117 50 125 1.0 2.0 0.00 0.00 0.00 91 1020.1
20260507083637 51 0.0 0.0 0.00 0.00 0.00 92 1020.2
20260507083117 51 0.0 0.0 0.00 0.00 0.00 92 1020.2
20260507082617 51 0.0 0.0 0.00 0.00 0.00 92 1020.2
20260507082117 51 0.0 0.0 0.00 0.00 0.00 93 1020.1
20260507081617 51 0.0 0.0 0.00 0.00 0.00 93 1020.2
20260507081117 51 0.0 0.0 0.00 0.00 0.00 93 1020.1
20260507080617 51 103 0.0 1.0 0.00 0.00 0.00 93 1020.1
20260507080117 51 0.0 0.0 0.00 0.00 0.00 93 1020.2
20260507075618 51 0.0 0.0 0.00 0.00 0.00 93 1020.2
20260507075117 51 0.0 0.0 0.00 0.00 0.00 94 1020.3
20260507074617 51 104 0.0 1.0 0.00 0.00 0.00 93 1020.3
20260507074137 51 0.0 0.0 0.00 0.00 0.00 93 1020.5
20260507073637 51 0.0 0.0 0.00 0.00 0.00 93 1020.1
20260507073117 52 0.0 0.0 0.00 0.00 0.00 93 1020.3
20260507072617 52 145 1.0 2.0 0.00 0.00 0.00 93 1020.3
20260507072117 52 101 0.0 1.0 0.00 0.00 0.00 92 1020.2
20260507071617 52 0.0 0.0 0.00 0.00 0.00 92 1020.2
20260507071118 52 0.0 0.0 0.00 0.00 0.00 92 1020.1
20260507070617 52 111 0.0 1.0 0.00 0.00 0.00 91 1020.1
20260507070118 52 0.0 0.0 0.00 0.00 0.00 91 1020.2
20260507065617 52 0.0 0.0 0.00 0.00 0.00 91 1020.3
20260507065117 52 0.0 0.0 0.00 0.00 0.00 91 1020.2
20260507064617 52 127 1.0 2.0 0.00 0.00 0.00 91 1020.1
20260507064117 52 0.0 0.0 0.00 0.00 0.00 91 1020.2
20260507063617 52 0.0 0.0 0.00 0.00 0.00 91 1020.1
20260507063117 53 0.0 0.0 0.00 0.00 0.00 91 1020.0
20260507062616 53 0.0 0.0 0.00 0.00 0.00 90 1020.1
20260507062117 53 0.0 0.0 0.00 0.00 0.00 90 1020.1
20260507061637 53 0.0 0.0 0.00 0.00 0.00 90 1020.1
20260507061118 53 0.0 0.0 0.00 0.00 0.00 90 1020.2
20260507060617 53 0.0 0.0 0.00 0.00 0.00 89 1020.1
20260507060117 53 0.0 0.0 0.00 0.00 0.00 89 1020.2
20260507055637 53 0.0 0.0 0.00 0.00 0.00 89 1020.0
20260507055137 53 0.0 0.0 0.00 0.00 0.00 88 1020.1
20260507054617 53 80 1.0 2.0 0.00 0.00 0.00 88 1020.2
20260507054116 53 91 0.0 1.0 0.00 0.00 0.00 87 1020.0
20260507053618 53 106 0.0 1.0 0.00 0.00 0.00 87 1020.0
20260507053118 53 90 0.0 1.0 0.00 0.00 0.00 86 1020.0
20260507052617 54 0.0 0.0 0.00 0.00 0.00 86 1020.1
20260507052117 54 0.0 0.0 0.00 0.00 0.00 85 1020.1
20260507051617 54 0.0 0.0 0.00 0.00 0.00 85 1020.1
20260507051137 54 0.0 0.0 0.00 0.00 0.00 84 1020.1
20260507050617 54 0.0 0.0 0.00 0.00 0.00 85 1020.1
20260507050117 54 0.0 0.0 0.00 0.00 0.00 85 1020.1
20260507045637 54 0.0 0.0 0.00 0.00 0.00 85 1020.0
20260507045117 54 0.0 0.0 0.00 0.00 0.00 84 1020.1
20260507044617 54 0.0 0.0 0.00 0.00 0.00 85 1020.1
20260507044117 54 0.0 0.0 0.00 0.00 0.00 85 1020.0
20260507043617 54 0.0 0.0 0.00 0.00 0.00 85 1020.0
20260507043137 54 0.0 0.0 0.00 0.00 0.00 84 1020.0
20260507042617 55 0.0 0.0 0.00 0.00 0.00 83 1020.2
20260507042137 55 0.0 0.0 0.00 0.00 0.00 84 1020.1
20260507041617 55 102 0.0 1.0 0.00 0.00 0.00 83 1020.0
20260507041116 55 0.0 0.0 0.00 0.00 0.00 84 1020.2
20260507040617 55 132 1.0 3.0 0.00 0.00 0.00 83 1020.0
20260507040138 55 0.0 0.0 0.00 0.00 0.00 83 1019.9
20260507035617 55 0.0 0.0 0.00 0.00 0.00 83 1019.9
20260507035117 55 0.0 0.0 0.00 0.00 0.00 83 1019.8
20260507034617 55 0.0 0.0 0.00 0.00 0.00 83 1019.8
20260507034117 55 0.0 0.0 0.00 0.00 0.00 83 1019.7